STARLINK-34394

Last updated on Sat Jul 19 2025 00:02:07 GMT+0000 (Coordinated Universal Time)

1 64669U 25139F 25199.58335648 .00059608 00000+0 10720-2 0 9998 2 64669 53.1594 138.1741 0001045 75.4837 110.4212 15.49299278 4381
UTC large
Height (km)
Speed (km/s)
/
Latitude / Longitude
Inclination (degrees)
Orbital Period (minutes)
Azimuth
Elevation
Range (km)
Doppler Factor

Next 0 passes for location: London (51.5072 / 0.1276)

Sorry there are no passes over London.